This demonstration page uses our WeatherBlox Daily Observations layout. Learn more.

Left ArrowRight Arrow

40.92945, -100.16068

Hourly Observations for November 28, 2021

Temp ( °F °C ) Dew Point ( °F °C ) Humidity (%) Winds ( mph kmh ) Pressure ( in mb ) Visibility ( mi km ) Precip ( " mm )
12:15 am 00:15 Clear 29 -1.9 24 -4.5 83 83 N N/A 30.39 1029 10 16 N/A
12:35 am 00:35 Clear 27 -2.9 24 -4.7 88 88 W 7 11 30.41 1030 10 16 N/A
12:55 am 00:55 Clear 28 -2.5 24 -4.5 86 86 W 5 7 30.39 1029 10 16 N/A
1:15 am 01:15 Clear 28 -2.5 23 -5 83 83 N N/A 30.39 1029 10 16 N/A
1:35 am 01:35 Clear 25 -4.1 21 -6.1 86 86 WNW 3 6 30.40 1029 10 16 N/A
1:55 am 01:55 Clear 23 -5 20 -6.8 87 87 WNW 5 7 30.41 1030 10 16 N/A
2:15 am 02:15 Clear 23 -4.8 21 -6.3 89 89 NW 3 6 30.40 1029 10 16 N/A
2:35 am 02:35 Clear 23 -5.1 20 -6.7 89 89 NW 6 9 30.40 1029 10 16 N/A
2:55 am 02:55 Clear 23 -5.1 20 -6.6 89 89 WNW 5 7 30.41 1030 10 16 N/A
3:15 am 03:15 Clear 23 -5 20 -6.5 89 89 NW 6 9 30.41 1030 10 16 N/A
3:35 am 03:35 Clear 22 -5.5 19 -7 89 89 WNW 3 6 30.41 1030 10 16 N/A
3:55 am 03:55 Clear 23 -5 20 -6.5 89 89 NW 5 7 30.40 1029 10 16 N/A
4:15 am 04:15 Clear 22 -5.5 19 -7 89 89 WNW 5 7 30.40 1030 10 16 N/A
4:35 am 04:35 Clear 24 -4.7 21 -6 91 91 WNW 7 11 30.40 1029 10 16 N/A
4:55 am 04:55 Clear 23 -4.8 20 -6.4 89 89 WNW 3 6 30.39 1029 10 16 N/A
5:15 am 05:15 Clear 23 -4.8 21 -6.3 89 89 NW 5 7 30.40 1029 10 16 N/A
5:35 am 05:35 Clear 22 -5.5 19 -7.1 89 89 W 5 7 30.39 1029 10 16 N/A
5:55 am 05:55 Clear 22 -5.4 20 -6.6 91 91 NW 5 7 30.39 1029 10 16 N/A
6:15 am 06:15 Clear 22 -5.8 19 -7.1 91 91 WNW 3 6 30.41 1030 10 16 N/A
6:35 am 06:35 Clear 22 -5.6 19 -7 90 90 W 3 6 30.42 1030 10 16 N/A
6:55 am 06:55 Clear 22 -5.7 19 -7.2 89 89 N N/A 30.41 1030 10 16 N/A
7:15 am 07:15 Clear 22 -5.6 20 -6.9 91 91 N N/A 30.40 1029 10 16 N/A
7:35 am 07:35 Clear 21 -6.2 18 -7.7 89 89 N N/A 30.41 1030 10 16 N/A
7:55 am 07:55 Sunny 23 -5 21 -6 93 93 N 3 6 30.40 1029 10 16 N/A
8:15 am 08:15 Sunny 22 -5.4 20 -6.8 90 90 N N/A 30.39 1029 10 16 N/A
8:35 am 08:35 Sunny 24 -4.3 22 -5.8 89 89 N N/A 30.38 1029 10 16 N/A
8:55 am 08:55 Sunny 28 -2 24 -4.3 84 84 N N/A 30.34 1027 10 16 N/A
9:15 am 09:15 Sunny 32 undefined 27 -2.7 82 82 N N/A 30.32 1027 10 16 N/A
9:35 am 09:35 Sunny 35 1.5 29 -1.6 80 80 SSW 3 6 30.30 1026 10 16 N/A
9:55 am 09:55 Sunny 39 4 30 -1 70 70 S 6 9 30.27 1025 10 16 N/A
10:15 am 10:15 Sunny 44 6.7 30 -1.3 57 57 SSW 14 22 30.23 1024 10 16 N/A
10:35 am 10:35 Sunny 45 7.4 29 -1.4 54 54 SSW 14 22 30.23 1024 10 16 N/A
10:55 am 10:55 Sunny 47 8.1 29 -1.4 51 51 SSW 12 19 30.22 1023 10 16 N/A
11:15 am 11:15 Sunny 47 8.2 29 -1.5 51 51 SSW 15 24 30.21 1023 10 16 N/A
11:35 am 11:35 Sunny 49 9.4 30 -1.2 48 48 SSW 13 20 30.19 1022 10 16 N/A
11:55 am 11:55 Sunny 49 9.5 29 -1.5 47 47 SW 18 30 30.17 1022 10 16 N/A
12:15 pm 12:15 Sunny 50 10.1 29 -1.5 45 45 SSW 15 24 30.14 1021 10 16 N/A
12:35 pm 12:35 Sunny 51 10.5 29 -1.7 43 43 SSW 17 28 30.12 1020 10 16 N/A
12:55 pm 12:55 Sunny 53 11.4 30 -1.2 42 42 SW 20 31 30.10 1019 10 16 N/A
1:15 pm 13:15 Sunny 53 11.7 29 -1.6 40 40 SW 15 24 30.11 1019 10 16 N/A
1:35 pm 13:35 Sunny 55 12.9 29 -1.7 37 37 SSW 15 24 30.06 1018 10 16 N/A
1:55 pm 13:55 Sunny 56 13.1 29 -1.6 36 36 WSW 12 19 30.05 1018 10 16 N/A
2:15 pm 14:15 Sunny 57 13.7 29 -1.7 35 35 SW 13 20 30.04 1017 10 16 N/A
2:35 pm 14:35 Sunny 56 13.6 29 -1.8 35 35 SW 12 19 30.03 1017 10 16 N/A
2:55 pm 14:55 Sunny 56 13.3 30 -1.3 37 37 WSW 9 15 30.03 1017 10 16 N/A
3:15 pm 15:15 Sunny 56 13.2 29 -1.5 36 36 WSW 9 15 30.02 1017 10 16 N/A
3:35 pm 15:35 Sunny 56 13.1 29 -1.5 37 37 WSW 7 11 30.02 1017 10 16 N/A
3:55 pm 15:55 Sunny 55 12.5 31 -0.8 40 40 WSW 5 7 30.03 1017 10 16 N/A
4:15 pm 16:15 Sunny 53 11.9 31 -0.5 43 43 WSW 5 7 30.03 1017 10 16 N/A
4:35 pm 16:35 Sunny 52 11.2 30 -1.2 42 42 SSW 5 7 30.03 1017 10 16 N/A
4:55 pm 16:55 Sunny 51 10.4 29 -1.5 44 44 SSE 5 7 30.03 1017 10 16 N/A
5:15 pm 17:15 Clear 50 10.1 29 -1.5 45 45 S 5 7 30.04 1017 10 16 N/A
5:35 pm 17:35 Clear 47 8.3 29 -1.6 50 50 S 3 6 30.06 1018 10 16 N/A
5:55 pm 17:55 Clear 46 7.9 29 -1.5 52 52 N N/A 30.06 1018 10 16 N/A
6:15 pm 18:15 Clear 43 6.3 28 -2.2 55 55 N N/A 30.08 1018 10 16 N/A
6:35 pm 18:35 Clear 43 6 29 -1.9 57 57 S 3 6 30.08 1019 10 16 N/A
6:55 pm 18:55 Clear 41 5 28 -2.1 60 60 N N/A 30.08 1019 10 16 N/A
7:15 pm 19:15 Clear 41 5.1 29 -1.9 61 61 SW 5 7 30.07 1018 10 16 N/A
7:35 pm 19:35 Clear 40 4.4 28 -2.1 63 63 WSW 3 6 30.07 1018 10 16 N/A
7:55 pm 19:55 Clear 40 4.3 28 -2.2 63 63 WSW 3 6 30.08 1019 10 16 N/A
8:15 pm 20:15 Clear 39 3.9 28 -2.2 65 65 N N/A 30.08 1019 10 16 N/A
8:35 pm 20:35 Clear 37 2.6 26 -3.1 66 66 WNW 3 6 30.10 1019 10 16 N/A
8:55 pm 20:55 Clear 35 1.7 26 -3.1 71 71 NW 3 6 30.10 1019 10 16 N/A
9:15 pm 21:15 Clear 34 1.2 27 -3 74 74 N 5 7 30.12 1020 10 16 N/A
9:35 pm 21:35 Clear 34 0.9 26 -3.3 74 74 NW 5 7 30.11 1020 10 16 N/A
9:55 pm 21:55 Clear 34 0.9 26 -3.1 75 75 NNW 5 7 30.12 1020 10 16 N/A
10:15 pm 22:15 Clear 34 1.1 26 -3.1 74 74 N N/A 30.11 1020 10 16 N/A
10:35 pm 22:35 Clear 35 1.7 27 -2.6 73 73 WNW 3 6 30.09 1019 10 16 N/A
10:55 pm 22:55 Clear 32 0.1 26 -3.4 78 78 N N/A 30.11 1020 10 16 N/A
11:15 pm 23:15 Clear 33 0.8 27 -3 76 76 WNW 5 7 30.10 1019 10 16 N/A
11:35 pm 23:35 Clear 32 undefined 25 -3.7 76 76 NW 6 9 30.12 1020 10 16 N/A
11:55 pm 23:55 Clear 31 -0.5 26 -3.3 82 82 W 6 9 30.11 1020 10 16 N/A

Powered by AerisWeather